Location: Sagn�
(15.2046°N, 12.7898°W)
Time: 14:08:42
(UTC+00:00)

CZ-2D R/B - Pass Details

Date: 08 May 2021
Orbit: 520 x 537 km, 97.4° (Epoch: 14 June)

Event Time Altitude Azimuth Distance (km) Brightness Sun altitude
Rises 19:27:37 0° 177° (S) 2,674 6.6 -4.7°
Reaches altitude 10° 19:29:46 10° 181° (S) 1,783 5.7 -5.2°
Maximum altitude 19:33:32 55° 259° (W) 643 4.1 -6.0°
Drops below altitude 10° 19:37:18 10° 338° (NNW) 1,778 6.6 -6.9°
Sets 19:39:27 0° 343° (NNW) 2,666 7.4 -7.4°
